Home   Weather   Zaragoza   Past weeks
Flag for Spain

Past Weather in Zaragoza, Spain — Yesterday and Last 2 Weeks

Now
48 °F

Clear.


Feels Like: 41 °F
Forecast: 65 / 38 °F
Wind: 20 mph from Northwest

Location: Zaragoza / Aeropuerto

Current Time: Mar 26, 2019 at 6:17:49 am

Latest Report: Mar 26, 2019 at 5:30 am


Visibility: 10 mi

Pressure: 30.18 "Hg

Humidity: 58%

Dew Point: 34 °F

Location of ZaragozaLocation

Past Weather in Zaragoza — Graph

°F

Zaragoza Temperature Yesterday

Maximum temperature yesterday: 63 °F (at 1:30 pm)
Minimum temperature yesterday: 48 °F (at 11:30 pm)
Average temperature yesterday: 56 °F

High & Low Weather Summary for the Past Weeks

 TemperatureHumidityPressure
High77 °F (Mar 16, 5:00 pm)81% (Mar 12, 5:30 am)30.48 "Hg (Mar 12, 5:30 am)
Low36 °F (Mar 22, 6:00 am)15% (Mar 24, 4:30 pm)29.95 "Hg (Mar 17, 3:30 am)
Average53 °F52%30.27 "Hg
* Reported Mar 11 5:00 am — Mar 26 5:00 am, Zaragoza. Weather by CustomWeather, © 2019

Note: Actual official high and low records may vary slightly from our data, if they occured in-between our weather recording intervals... More about our weather records

Advertising

Zaragoza Weather History for the Previous 24 Hours

Scroll right to see more
 ConditionsComfort  
Time TempWeatherWind HumidityBarometerVisibility
5:00 am
Tue, Mar 26
48 °FClear.20 mph62%30.15 "Hg10 mi
4:30 am48 °FPassing clouds.22 mph62%30.15 "HgN/A
4:00 am48 °FClear.21 mph62%30.15 "Hg10 mi
3:30 am48 °FClear.20 mph62%30.18 "Hg10 mi
3:00 am48 °FClear.21 mph62%30.18 "Hg10 mi
2:30 am48 °FClear.22 mph62%30.18 "Hg10 mi
2:00 am48 °FClear.22 mph62%30.18 "Hg10 mi
1:30 am50 °FPassing clouds.23 mph58%30.18 "HgN/A
1:00 am48 °FClear.24 mph62%30.18 "Hg10 mi
12:30 am48 °FPassing clouds.25 mph62%30.18 "HgN/A
12:00 am48 °FPassing clouds.25 mph58%30.18 "HgN/A
11:30 pm
Mon, Mar 25
48 °FClear.24 mph62%30.18 "Hg10 mi
11:00 pm50 °FPassing clouds.30 mph54%30.15 "HgN/A
10:30 pm50 °FClear.31 mph58%30.15 "Hg10 mi
10:00 pm50 °FPassing clouds.28 mph58%30.15 "HgN/A
9:30 pm52 °FClear.28 mph54%30.15 "Hg10 mi
9:00 pm52 °FClear.28 mph54%30.12 "Hg10 mi
8:30 pm52 °FClear.31 mph54%30.12 "Hg10 mi
8:00 pm54 °FClear.30 mph51%30.12 "Hg10 mi
7:30 pm55 °FClear.29 mph47%30.12 "Hg10 mi
7:00 pm55 °FSunny.32 mph47%30.09 "Hg10 mi
6:30 pm57 °FSunny.30 mph41%30.09 "Hg10 mi
6:00 pm61 °FSunny.29 mph36%30.09 "Hg10 mi
5:30 pm61 °FPassing clouds.30 mph34%30.09 "HgN/A
5:00 pm61 °FSunny.31 mph31%30.09 "Hg10 mi
4:30 pm63 °FSunny.29 mph30%30.09 "Hg10 mi
4:00 pm63 °FPassing clouds.26 mph32%30.12 "HgN/A
3:30 pm63 °FPassing clouds.31 mph32%30.12 "HgN/A
3:00 pm63 °FPassing clouds.30 mph32%30.12 "HgN/A
2:30 pm63 °FSunny.30 mph32%30.15 "Hg10 mi
2:00 pm63 °FPassing clouds.26 mph34%30.15 "HgN/A
1:30 pm63 °FPassing clouds.25 mph34%30.18 "HgN/A
1:00 pm61 °FPassing clouds.28 mph36%30.18 "HgN/A
12:30 pm61 °FPassing clouds.25 mph39%30.21 "HgN/A
12:00 pm61 °FSunny.29 mph39%30.21 "Hg10 mi
11:30 am59 °FSunny.29 mph48%30.21 "Hg10 mi
11:00 am59 °FSunny.28 mph48%30.21 "Hg10 mi
10:30 am57 °FSunny.29 mph55%30.24 "Hg10 mi
10:00 am57 °FSunny.26 mph55%30.21 "Hg10 mi
9:00 am54 °FSunny.22 mph63%30.21 "Hg10 mi
8:30 am52 °FSunny.23 mph67%30.21 "Hg10 mi
8:00 am50 °FPassing clouds.20 mph67%30.21 "HgN/A
7:30 am50 °FSunny.20 mph67%30.21 "Hg10 mi
7:00 am50 °FSunny.18 mph67%30.21 "Hg10 mi
6:30 am50 °FClear.17 mph62%30.18 "Hg10 mi
6:00 am50 °FClear.15 mph62%30.18 "Hg10 mi
Weather by CustomWeather, © 2019

See weather overview